Location: Escondida
(34.1015°N, 106.8964°W)
Time: 02:10:08
(UTC+00:00)

STARLINK-36117 - Pass Details

Date: 11 December 2025
Orbit: 480 x 481 km, 43.0° (Epoch: 12 January)

Event Time Altitude Azimuth Distance (km) Brightness Sun altitude
Exits shadow 12:30:41 25° 219° (SW) 998 3.7 -18.7°
Maximum altitude 12:32:40 60° 147° (SSE) 550 2.8 -18.3°
Drops below altitude 10° 12:36:22 10° 67° (ENE) 1,648 5.8 -17.5°
Sets 12:38:34 0° 64° (ENE) 2,530 6.8 -17.1°
